Meteo pe oră la Abdulkarimovo

Astăzi, 3 August, Marţi

Timp Temperatura Precipitaţii Vânt Presiune Umiditate
00:00 +20°C° 0 mm 1 m/s 723 mmHg 54%
01:00 +19°C° 0 mm 1 m/s 723 mmHg 57%
02:00 +19°C° 0 mm 1 m/s 723 mmHg 58%
03:00 +19°C° 0 mm 1 m/s 723 mmHg 60%
04:00 +18°C° 0 mm 1 m/s 723 mmHg 61%
05:00 +20°C° 0 mm 1 m/s 723 mmHg 56%
06:00 +20°C° 0 mm 0 m/s 724 mmHg 51%
07:00 +22°C° 0 mm 0 m/s 724 mmHg 47%
08:00 +27°C° 0 mm 1 m/s 724 mmHg 40%
09:00 +29°C° 0 mm 1 m/s 724 mmHg 34%
10:00 +32°C° 0 mm 1 m/s 724 mmHg 27%
11:00 +34°C° 0 mm 2 m/s 724 mmHg 25%
12:00 +35°C° 0 mm 2 m/s 724 mmHg 23%
13:00 +36°C° 0 mm 3 m/s 723 mmHg 21%
14:00 +36°C° 0 mm 3 m/s 723 mmHg 21%
15:00 +36°C° 0 mm 3 m/s 723 mmHg 21%
16:00 +36°C° 0 mm 3 m/s 723 mmHg 21%
17:00 +35°C° 0 mm 3 m/s 722 mmHg 25%
18:00 +32°C° 0 mm 2 m/s 722 mmHg 29%
19:00 +30°C° 0 mm 2 m/s 722 mmHg 33%
20:00 +29°C° 0 mm 2 m/s 722 mmHg 35%
21:00 +27°C° 0 mm 2 m/s 722 mmHg 37%
22:00 +26°C° 0 mm 1 m/s 722 mmHg 38%
23:00 +25°C° 0 mm 1 m/s 722 mmHg 40%

Mâine, 4 August, Miercuri

Timp Temperatura Precipitaţii Vânt Presiune Umiditate
00:00 +24°C° 0 mm 1 m/s 722 mmHg 41%
01:00 +23°C° 0 mm 1 m/s 722 mmHg 42%
02:00 +23°C° 0 mm 1 m/s 722 mmHg 43%
03:00 +23°C° 0 mm 1 m/s 722 mmHg 43%
04:00 +23°C° 0 mm 1 m/s 722 mmHg 43%
05:00 +25°C° 0 mm 1 m/s 722 mmHg 41%
06:00 +26°C° 0 mm 1 m/s 722 mmHg 40%
07:00 +28°C° 0 mm 1 m/s 722 mmHg 38%
08:00 +30°C° 0 mm 2 m/s 722 mmHg 33%
09:00 +34°C° 0 mm 2 m/s 722 mmHg 28%
10:00 +36°C° 0 mm 3 m/s 722 mmHg 23%
11:00 +37°C° 0 mm 4 m/s 722 mmHg 21%
12:00 +37°C° 0 mm 4 m/s 722 mmHg 20%
13:00 +39°C° 0 mm 5 m/s 722 mmHg 19%
14:00 +37°C° 0 mm 5 m/s 722 mmHg 20%
15:00 +36°C° 0 mm 5 m/s 721 mmHg 22%
16:00 +35°C° 0 mm 5 m/s 721 mmHg 23%
17:00 +33°C° 0.1 mm 4 m/s 721 mmHg 33%
18:00 +29°C° 0.1 mm 2 m/s 721 mmHg 42%
19:00 +26°C° 0.1 mm 1 m/s 721 mmHg 52%
20:00 +25°C° 0 mm 2 m/s 721 mmHg 55%
21:00 +24°C° 0 mm 2 m/s 721 mmHg 57%
22:00 +23°C° 0 mm 2 m/s 721 mmHg 60%
23:00 +21°C° 0 mm 2 m/s 721 mmHg 60%

Poimâine, 5 August, Joi

Timp Temperatura Precipitaţii Vânt Presiune Umiditate
00:00 +22°C° 0 mm 1 m/s 721 mmHg 59%
01:00 +22°C° 0 mm 1 m/s 721 mmHg 59%
02:00 +21°C° 0 mm 1 m/s 721 mmHg 59%
03:00 +21°C° 0 mm 1 m/s 720 mmHg 60%
04:00 +21°C° 0 mm 1 m/s 720 mmHg 61%
05:00 +22°C° 0 mm 1 m/s 720 mmHg 58%
06:00 +24°C° 0 mm 2 m/s 720 mmHg 54%
07:00 +25°C° 0 mm 2 m/s 720 mmHg 50%
08:00 +28°C° 0 mm 2 m/s 720 mmHg 41%
09:00 +31°C° 0 mm 3 m/s 720 mmHg 32%
10:00 +35°C° 0 mm 3 m/s 720 mmHg 23%
11:00 +36°C° 0 mm 3 m/s 720 mmHg 21%
12:00 +37°C° 0 mm 4 m/s 720 mmHg 20%
13:00 +37°C° 0 mm 4 m/s 720 mmHg 18%
14:00 +37°C° 0 mm 4 m/s 720 mmHg 18%
15:00 +37°C° 0 mm 4 m/s 720 mmHg 19%
16:00 +37°C° 0 mm 4 m/s 720 mmHg 19%
17:00 +34°C° 0 mm 5 m/s 720 mmHg 26%
18:00 +32°C° 0 mm 6 m/s 720 mmHg 33%
19:00 +29°C° 0 mm 7 m/s 720 mmHg 40%
20:00 +26°C° 0.4 mm 6 m/s 720 mmHg 53%
21:00 +22°C° 0.4 mm 5 m/s 720 mmHg 66%
22:00 +19°C° 0.4 mm 4 m/s 720 mmHg 79%
23:00 +18°C° 0.6 mm 3 m/s 720 mmHg 81%

6 August, Vineri

Timp Temperatura Precipitaţii Vânt Presiune Umiditate
00:00 +18°C° 0.6 mm 2 m/s 720 mmHg 84%
01:00 +18°C° 0.6 mm 1 m/s 719 mmHg 86%
02:00 +17°C° 0 mm 2 m/s 719 mmHg 88%
03:00 +16°C° 0 mm 2 m/s 719 mmHg 90%
04:00 +16°C° 0 mm 2 m/s 719 mmHg 91%
05:00 +17°C° 0 mm 3 m/s 719 mmHg 88%
06:00 +18°C° 0 mm 4 m/s 720 mmHg 84%
07:00 +19°C° 0 mm 4 m/s 720 mmHg 80%
08:00 +21°C° 0 mm 4 m/s 720 mmHg 68%
09:00 +23°C° 0 mm 5 m/s 721 mmHg 57%
10:00 +26°C° 0 mm 5 m/s 721 mmHg 46%
11:00 +27°C° 0 mm 5 m/s 721 mmHg 41%
12:00 +28°C° 0 mm 5 m/s 721 mmHg 36%
13:00 +29°C° 0 mm 5 m/s 721 mmHg 31%
14:00 +29°C° 0 mm 5 m/s 721 mmHg 30%
15:00 +29°C° 0 mm 5 m/s 721 mmHg 29%
16:00 +29°C° 0 mm 4 m/s 721 mmHg 28%
17:00 +27°C° 0 mm 4 m/s 721 mmHg 32%
18:00 +26°C° 0 mm 5 m/s 722 mmHg 35%
19:00 +23°C° 0 mm 5 m/s 722 mmHg 38%
20:00 +21°C° 0 mm 4 m/s 722 mmHg 45%
21:00 +19°C° 0 mm 3 m/s 722 mmHg 51%
22:00 +17°C° 0 mm 3 m/s 722 mmHg 57%
23:00 +16°C° 0 mm 3 m/s 722 mmHg 59%

7 August, Sâmbătă

Timp Temperatura Precipitaţii Vânt Presiune Umiditate
00:00 +15°C° 0 mm 2 m/s 722 mmHg 61%
01:00 +15°C° 0 mm 2 m/s 723 mmHg 63%
02:00 +14°C° 0 mm 2 m/s 723 mmHg 64%
03:00 +14°C° 0 mm 2 m/s 723 mmHg 64%
04:00 +13°C° 0 mm 2 m/s 723 mmHg 65%
05:00 +15°C° 0 mm 2 m/s 723 mmHg 59%
06:00 +17°C° 0 mm 2 m/s 724 mmHg 53%
07:00 +18°C° 0 mm 2 m/s 724 mmHg 47%
08:00 +20°C° 0 mm 3 m/s 724 mmHg 41%
09:00 +22°C° 0 mm 3 m/s 724 mmHg 35%
10:00 +25°C° 0 mm 4 m/s 724 mmHg 28%
11:00 +26°C° 0 mm 4 m/s 724 mmHg 25%
12:00 +27°C° 0 mm 4 m/s 724 mmHg 23%
13:00 +28°C° 0 mm 4 m/s 724 mmHg 20%
14:00 +28°C° 0 mm 4 m/s 724 mmHg 21%
15:00 +28°C° 0 mm 4 m/s 724 mmHg 23%
16:00 +28°C° 0 mm 5 m/s 724 mmHg 25%
17:00 +27°C° 0 mm 5 m/s 724 mmHg 30%
18:00 +25°C° 0 mm 5 m/s 724 mmHg 35%
19:00 +23°C° 0 mm 4 m/s 725 mmHg 40%
20:00 +21°C° 0 mm 4 m/s 725 mmHg 47%
21:00 +19°C° 0 mm 3 m/s 725 mmHg 54%
22:00 +16°C° 0 mm 3 m/s 725 mmHg 61%
23:00 +16°C° 0 mm 2 m/s 725 mmHg 64%

8 August, Duminică

Timp Temperatura Precipitaţii Vânt Presiune Umiditate
00:00 +15°C° 0 mm 2 m/s 725 mmHg 66%
01:00 +15°C° 0 mm 2 m/s 725 mmHg 68%
02:00 +14°C° 0 mm 2 m/s 725 mmHg 69%
03:00 +14°C° 0 mm 1 m/s 725 mmHg 70%
04:00 +14°C° 0 mm 1 m/s 726 mmHg 71%
05:00 +15°C° 0 mm 1 m/s 726 mmHg 66%
06:00 +16°C° 0 mm 1 m/s 726 mmHg 61%
07:00 +19°C° 0 mm 1 m/s 727 mmHg 56%
08:00 +19°C° 0 mm 2 m/s 727 mmHg 50%
09:00 +21°C° 0 mm 2 m/s 727 mmHg 44%
10:00 +24°C° 0 mm 3 m/s 727 mmHg 39%
11:00 +26°C° 0 mm 3 m/s 727 mmHg 35%
12:00 +27°C° 0 mm 3 m/s 726 mmHg 31%
13:00 +28°C° 0 mm 3 m/s 726 mmHg 28%
14:00 +29°C° 0 mm 3 m/s 726 mmHg 27%
15:00 +29°C° 0 mm 4 m/s 726 mmHg 25%
16:00 +29°C° 0 mm 4 m/s 727 mmHg 24%
17:00 +27°C° 0 mm 3 m/s 727 mmHg 28%
18:00 +26°C° 0 mm 3 m/s 727 mmHg 32%
19:00 +24°C° 0 mm 2 m/s 727 mmHg 36%
20:00 +21°C° 0 mm 2 m/s 727 mmHg 38%
21:00 +19°C° 0 mm 2 m/s 727 mmHg 41%
22:00 +17°C° 0 mm 2 m/s 727 mmHg 44%
23:00 +16°C° 0 mm 2 m/s 727 mmHg 45%
Arată mai mult

Formular de consimțământ

Meteoprog și furnizorii noștri de servicii pot stoca și accesa date personale, precum cookies, identificatori de dispozitiv sau alte tehnologii similare pe dispozitivul dumneavoastră și procesa astfel de date pentru a personaliza conținutul și reclamele, dar și pentru a oferi caracteristici de social media și pentru a analiza traficul.

  • Stocarea și/sau accesarea informațiilor pe dispozitivul dumneavoastră

    Cookies, identificatori de dispozitiv sau alte informații pot fi stocate sau accesate pe dispozitiv în scopurile indicate mai sus.

  • Reclame și conținut personalizat, evaluarea reclamelor și a conținutului, informații despre audiențe și dezvoltarea produselor

    Reclamele și conținutul pot fi personalizate pe baza unui profil. Pot fi adăugate date suplimentare pentru a personaliza mai bine reclamele și conținutul. Performanța reclamelor și conținutului poate fi măsurată. Pot fi obținute informații despre utilizatorii care au văzut reclamele și conținutul. Aceste date pot fi utilizate pentru a dezvolta sau îmbunătăți experiența utilizatorilor, sistemele și software-ul.

Dând clic pe ‘Sunt de acord’, permiteți utilizarea cookie-urilor menționate, a identificatorilor de dispozitiv, balizelor web sau altor tehnologii similare. Setările pot fi modificate din browser-ul dispozitivului dumneavoastră.

În anumite scopuri, interesele legitime pot prima asupra consimțământului. Puteți citi mai multe informații în acest sens în Politica privind Confidențialitatea Datelor și Cookie.